{"data":{"norad_id":59141,"epoch":"2026-09-22T21:20:50.690976Z","epoch_age_seconds":51518,"freshness":"FRESH","line1":"1 59141U 24043AV  26265.88947559  .00010326  00000+0  18086-3 0  9996","line2":"2 59141  97.5590  61.4844 0006221 154.9646 205.1908 15.50782718143108","mean_motion":15.50782718,"eccentricity":0.0006221,"inclination_deg":97.559,"raan_deg":61.4844,"arg_perigee_deg":154.9646,"mean_anomaly_deg":205.1908,"bstar":0.00018086,"rev_number":14310,"period_min":92.856335274172,"perigee_km":410.21385917334,"apogee_km":418.6651828808,"semimajor_km":6792.5765210271,"source":"CELESTRAK","updated_at":"2026-09-23T09:00:19.182977Z"}}